STARLINK-33834, 63586

Orbit data source: Space-Track

STARLINK-33834, 63586 is a payload satellite owned by SpaceX/Seattle (US) in LEO that was launched on Mon, 14 Apr 2025 UTC via an FALCON 9 launch vehicle from the Air Force Eastern Test Range (AFETR). Payload-class satellites include a variety of spacecraft equipped with specific instruments for various scientific and technological missions. These include communications satellites like Starlink; space stations such as the ISS; scientific satellites like the Hubble; Earth observation satellites from companies like Planet Labs, Umbra, and HawkEye 360; GPS; miniature CubeSats for education and research; and military/defense satellites.

Loading next visibility...
Identifier
63586, 2025-076T
Orbit
LEO
Country
Flag of USUS
Related business
Manufacturer
SpaceX/Seattle
Mission
Operational Commercial Communications
Bus & Motor
STARLINK V2MO, Unknown motor
Mass
575 kg wet, ~530 kg dry
Launch date (UTC)
2025-04-14 (7 months ago)
Launch vehicle
FALCON 9
Launch site
Air Force Eastern Test Range (AFETR)
Object type
Payload
Rocket body
Debris
Shape & HBR
Box + 2 Pan, 17.7 m
Radar Cross Section
36.964 m², Large (>1 m²)

Expand to show TLE details & history
Last TLE update: 21 hours ago

TLE from 21 hours ago
0 STARLINK-33834
1 63586U 25076T   25304.77105475  .00026973  00000-0  98571-3 0  9998
2 63586  43.0012 329.7845 0000705  37.3287 322.7614 15.27593805 32117
Epoch: 2025-10-31T18:30Z
TLE epoch observation values (Epoch: 2025-10-31T18:30:19.130Z)
Latitude
0.00002°
Longitude
11.8941°
Altitude
482.398 km
Speed
7.626 km/s
True Right ascension
21h 59m 08s
True Declination
0° 00' 00"
Sunlit
Object was in full shadow at epoch
Visualization orbit readout
Latitude
Unknown
Longitude
Unknown
Altitude
Unknown
Speed
Unknown
Apparent Right ascension
Unknown
Apparent Declination
Unknown
Sunlit
N/A
Visualization observer readout
Local Sidereal Time
11:24:49
Azimuth
Unknown
Elevation
Unknown
Doppler factor
Unknown
Orbital elements
Apogee altitude
485.437 km
Perigee altitude
484.469 km
Semi-major axis
6,863.09 km
Eccentricity
0.00007
Inclination
43.0012°
RAAN
329.7845°
Arg. of periapsis
37.3287°
True anomaly
322.75651°
Mean anomaly
322.7614°
Eccentric anomaly
322.75896°
Mean motion
3.81736 °/min
Orbital period
94.31 mins
BSTAR
0.00098571
Loading maneuver chart data...
Computing Atmospheric mass density...
Loading historical data...
Loading historical data...
Loading historical data...
Loading historical data...
Loading historical data...
Loading historical data...
Loading historical data...

Documentation

Showing up to 5 results
|